Regional Weather Roundup
Issued by NWS

Home | Current Version | Previous Version | Text Only | Print | Product List | Glossary On
Versions: 1 2 3 4 5 6 7 8 9 10 11 12 13 14 15 16 17 18 19 20 21 22 23 24 25 26 27 28 29 30 31 32 33 34 35 36 37 38 39 40 41 42 43 44 45 46 47 48 49 50
000
ASUS43 KIND 280409
RWRIN

WEATHER ROUNDUP FOR INDIANA
NATIONAL WEATHER SERVICE INDIANAPOLIS IN
1200 AM EDT MON JUL 28 2014

NOTE: "FAIR" INDICATES FEW OR NO CLOUDS BELOW 12,000 FEET WITH NO
SIGNIFICANT WEATHER AND/OR OBSTRUCTIONS TO VISIBILITY.

* - STATION DOES NOT REPORT WEATHER SUCH AS PRECIPITATION OR FOG.

+ - STATION NOT QUALITY CONTROLLED BY THE NATIONAL WEATHER SERVICE.
    USE DATA WITH CAUTION...ESPECIALLY DEWPOINT AND RELATIVE
    HUMIDITY OBSERVATIONS.

INZ001>003-010>013-019-020-280500-
NORTHWEST INDIANA

CITY           SKY/WX    TMP DP  RH WIND       PRES   REMARKS
GARY /AIRPORT/ RAIN      66  62  88 N16G25    29.89R
KNOX *+        MOCLDY    64  57  79 NW8       29.85R
LA PORTE +     CLOUDY    64  59  85 N15       29.86S
MICHIGAN CITY+ CLOUDY    63  59  88 N15G21    29.86S
MONTICELLO +   MOCLDY    64  59  83 NW8       29.84S
RENSSELAER +   MOCLDY    64  61  88 N6        29.87R
VALPARAISO     CLOUDY    64  60  87 N8G20     29.87R

$$

LMZ046-743>745-280500-
SOUTHERN LAKE MICHIGAN

STATION/POSITION TIME  TEMP WIND        PRES
                       AIR  DIR/SP/G
                 (UTC) (F)  (DEG/KT/KT) (MB)
BURNS HARBOR     0400   66  360/ 21/ 27 1011.9R
MICHIGAN CITY    0400   64  330/ 27/ 33   N/A

$$

INZ004-005-014>016-021>024-280500-
NORTH CENTRAL INDIANA

CITY           SKY/WX    TMP DP  RH WIND       PRES   REMARKS
GOSHEN         MOCLDY    65  58  78 NW10G23   29.81R
LOGANSPORT +   PTCLDY    64  55  72 NW6       29.84S
PERU/GRISSOM   MOCLDY    68  62  82 NW10      29.83S
ROCHESTER +    CLEAR     66  57  72 NW8       29.83S
SOUTH BEND     CLOUDY    65  58  78 NW16      29.84R
WARSAW +       CLEAR     63  55  77 NW10      29.81S

$$

INZ006>009-017-018-025>027-280500-
NORTHEAST INDIANA

CITY           SKY/WX    TMP DP  RH WIND       PRES   REMARKS
ANGOLA *+      CLEAR     64  55  72 W6        29.78R
AUBURN +       PTCLDY    64  55  72 W9        29.79R
FORT WAYNE     CLEAR     65  58  78 W10       29.79S
HUNTINGTON +   CLEAR     64  58  79 W6        29.80S

$$

INZ028-029-035-036-043>045-051>053-280500-
WEST CENTRAL INDIANA

CITY           SKY/WX    TMP DP  RH WIND       PRES   REMARKS
GREENCASTLE +  CLEAR     68  57  68 NW6       29.87F
LAFAYETTE      PTCLDY    65  58  78 W7        29.85S
TERRE HAUTE    CLEAR     70  57  63 NW9       29.89S

$$

INZ030>032-037>040-046>048-054>057-064-065-280500-
CENTRAL INDIANA

CITY           SKY/WX    TMP DP  RH WIND       PRES   REMARKS
CP ATTERBURY + CLEAR     70  55  60 W8        29.85S
GREENWOOD *+   CLEAR     72  61  68 NW13G20   29.85S
INDIANAPOLIS   CLEAR     68  57  68 NW14G21   29.84F
-EAGLE CREEK   CLEAR     69  57  65 W12       29.84F
KOKOMO *+      CLOUDY    66  48  52 NW9       29.83S
MARION +       PTCLDY    62  59  88 W6        29.82F
MT COMFORT *+  CLEAR     70  61  73 NW15G23   29.84S
SHELBYVILLE    CLEAR     71  57  61 NW12      29.83S
ZIONSVILLE +   CLEAR     66  56  70 W8        29.86S

$$

INZ033-034-041-042-049-050-058-059-280500-
EAST CENTRAL INDIANA

CITY           SKY/WX    TMP DP  RH WIND       PRES   REMARKS
MUNCIE         CLOUDY    67  57  70 W8        29.81F

$$

INZ060-061-067>069-081>083-085>088-280500-
SOUTHWEST INDIANA

CITY           SKY/WX    TMP DP  RH WIND       PRES   REMARKS
EVANSVILLE     CLEAR     75  59  57 NW7       29.91R
WASHINGTON +   CLEAR     70  60  72 NW12G17   29.89R

$$

INZ062-063-066-070>080-084-089>092-280500-
SOUTH CENTRAL AND SOUTHEAST INDIANA

CITY           SKY/WX    TMP DP  RH WIND       PRES   REMARKS
BLOOMINGTON    CLEAR     70  57  63 NW8       29.87S

$$




USA.gov is the U.S. government's official web portal to all federal, state and local government web resources and services.